,,PA_Meas_PMT16A,,PR_Meas_QMR101_102,,RH_Meas_QMH101,,SR_Meas_QMS101,,TA_Meas_QMH101,,GenWind,,GenWind,
time,status,PA,status,PR,status,RH,status,SR,status,TA,status,DirAvg,status,SpdAvg,
2011-06-08, 00:00:05,VALID,918.145,VALID,0,VALID,93.707,VALID,0,VALID,20.4813,VALID,127,VALID,0.891016,
2011-06-08, 00:01:05,VALID,918.138,VALID,0,VALID,93.8519,VALID,0,VALID,20.4228,VALID,127,VALID,0.957812,
2011-06-08, 00:02:05,VALID,918.147,VALID,0,VALID,94.2407,VALID,0.107441,VALID,20.3838,VALID,127,VALID,1.0543,
2011-06-08, 00:03:05,VALID,918.122,VALID,0,VALID,94.3017,VALID,0,VALID,20.3643,VALID,127,VALID,0.980859,
2011-06-08, 00:04:05,VALID,918.129,VALID,0,VALID,94.2026,VALID,0,VALID,20.3058,VALID,135,VALID,1.33555,
2011-06-08, 00:05:05,VALID,918.114,VALID,0,VALID,94.1644,VALID,0,VALID,20.2863,VALID,138,VALID,1.13555,
2011-06-08, 00:06:05,VALID,918.117,VALID,0,VALID,94.1416,VALID,0,VALID,20.2473,VALID,138,VALID,0.679688,
2011-06-08, 00:07:05,VALID,918.096,VALID,0,VALID,94.0348,VALID,0,VALID,20.2278,VALID,156,VALID,0.998828,
2011-06-08, 00:08:05,VALID,918.105,VALID,0,VALID,93.8366,VALID,0,VALID,20.1888,VALID,156,VALID,0.852734,
2011-06-08, 00:09:05,VALID,918.136,VALID,0,VALID,93.646,VALID,0,VALID,20.1303,VALID,155,VALID,0.544922,
2011-06-08, 00:10:05,VALID,918.085,VALID,0,VALID,93.3564,VALID,0,VALID,20.0718,VALID,146,VALID,0.519922,
2011-06-08, 00:11:05,VALID,918.102,VALID,0,VALID,93.303,VALID,0,VALID,20.0523,VALID,146,VALID,0.718359,
2011-06-08, 00:12:05,VALID,918.053,VALID,0,VALID,93.059,VALID,0,VALID,20.0328,VALID,133,VALID,0.672266,
2011-06-08, 00:13:05,VALID,918.07,VALID,0,VALID,92.8532,VALID,0,VALID,19.9953,VALID,133,VALID,0.519141,
2011-06-08, 00:14:05,VALID,918.049,VALID,0,VALID,92.6474,VALID,0,VALID,19.9743,VALID,133,VALID,0.8,
2011-06-08, 00:15:05,VALID,918.067,VALID,0,VALID,92.3729,VALID,0,VALID,19.9353,VALID,133,VALID,1.11289,
2011-06-08, 00:16:05,VALID,918.057,VALID,0,VALID,92.19,VALID,0,VALID,19.9353,VALID,133,VALID,0.748047,
2011-06-08, 00:17:05,VALID,918.046,VALID,0,VALID,92.1976,VALID,0,VALID,19.9158,VALID,133,VALID,0.259375,
2011-06-08, 00:18:05,VALID,918.057,VALID,0,VALID,92.0909,VALID,0,VALID,19.9353,VALID,133,VALID,0.600781,
2011-06-08, 00:19:05,VALID,918.038,VALID,0,VALID,91.9994,VALID,0,VALID,19.9158,VALID,133,VALID,0.728125,
2011-06-08, 00:20:05,VALID,918.047,VALID,0,VALID,91.946,VALID,0.107441,VALID,19.9143,VALID,133,VALID,0.704297,
2011-06-08, 00:21:05,VALID,918.019,VALID,0,VALID,92.0375,VALID,0,VALID,19.9353,VALID,133,VALID,0.832812,
2011-06-08, 00:22:05,VALID,917.986,VALID,0,VALID,91.9994,VALID,0,VALID,19.9548,VALID,133,VALID,0.763281,
2011-06-08, 00:23:05,VALID,917.978,VALID,0,VALID,92.007,VALID,0,VALID,19.9353,VALID,133,VALID,0.773047,
2011-06-08, 00:24:05,VALID,917.986,VALID,0,VALID,92.2891,VALID,0,VALID,19.9548,VALID,133,VALID,0.710547,
2011-06-08, 00:25:05,VALID,917.97,VALID,0,VALID,92.3501,VALID,0,VALID,19.9548,VALID,133,VALID,0.36875,
2011-06-08, 00:26:05,VALID,917.949,VALID,0,VALID,92.3272,VALID,0,VALID,19.9758,VALID,133,VALID,0.286328,
2011-06-08, 00:27:05,VALID,917.967,VALID,0,VALID,92.2967,VALID,0,VALID,19.9548,VALID,133,VALID,0.527734,
2011-06-08, 00:28:05,VALID,917.954,VALID,0,VALID,92.4187,VALID,0,VALID,19.9953,VALID,133,VALID,0.799609,
2011-06-08, 00:29:05,VALID,917.935,VALID,0,VALID,92.4797,VALID,0.107441,VALID,19.9743,VALID,133,VALID,0.507813,
2011-06-08, 00:30:05,VALID,917.936,VALID,0,VALID,92.5711,VALID,0,VALID,20.0133,VALID,133,VALID,0.586328,
2011-06-08, 00:31:05,VALID,917.942,VALID,0,VALID,92.5711,VALID,0,VALID,20.0133,VALID,133,VALID,0.827344,
2011-06-08, 00:32:05,VALID,917.936,VALID,0,VALID,92.4339,VALID,0,VALID,20.0133,VALID,133,VALID,0.744531,
2011-06-08, 00:33:05,VALID,917.923,VALID,0,VALID,92.2662,VALID,0,VALID,20.0133,VALID,133,VALID,1.06914,
2011-06-08, 00:34:05,VALID,917.891,VALID,0,VALID,92.0832,VALID,0,VALID,20.0343,VALID,133,VALID,0.721875,
2011-06-08, 00:35:05,VALID,917.891,VALID,0,VALID,92.1214,VALID,0,VALID,19.9548,VALID,133,VALID,0.682813,
2011-06-08, 00:36:05,VALID,917.857,VALID,0,VALID,92.1061,VALID,0,VALID,19.9548,VALID,133,VALID,0.436328,
2011-06-08, 00:37:05,VALID,917.833,VALID,0,VALID,92.0604,VALID,0,VALID,19.9353,VALID,133,VALID,0.340234,
2011-06-08, 00:38:05,VALID,917.847,VALID,0,VALID,91.8774,VALID,0,VALID,19.9353,VALID,142,VALID,0.433984,
2011-06-08, 00:39:05,VALID,917.832,VALID,0,VALID,91.6792,VALID,0,VALID,19.8963,VALID,142,VALID,0.480859,
2011-06-08, 00:40:05,VALID,917.802,VALID,0,VALID,91.4124,VALID,0,VALID,19.8963,VALID,142,VALID,0.942578,
2011-06-08, 00:41:05,VALID,917.815,VALID,0,VALID,91.3895,VALID,0,VALID,19.8768,VALID,142,VALID,0.939062,
2011-06-08, 00:42:05,VALID,917.8,VALID,0,VALID,91.5267,VALID,0,VALID,19.8573,VALID,142,VALID,0.696094,
2011-06-08, 00:43:05,VALID,917.823,VALID,0,VALID,91.603,VALID,0,VALID,19.8378,VALID,142,VALID,0.482031,
2011-06-08, 00:44:05,VALID,917.827,VALID,0,VALID,91.6792,VALID,0,VALID,19.7988,VALID,142,VALID,0.557422,
2011-06-08, 00:45:05,VALID,917.834,VALID,0,VALID,91.7631,VALID,0,VALID,19.7793,VALID,142,VALID,0.659766,
2011-06-08, 00:46:05,VALID,917.853,VALID,0,VALID,91.8317,VALID,0,VALID,19.7403,VALID,142,VALID,0.657031,
2011-06-08, 00:47:05,VALID,917.839,VALID,0,VALID,91.7783,VALID,0,VALID,19.7013,VALID,142,VALID,0.191406,
2011-06-08, 00:48:05,VALID,917.833,VALID,0,VALID,91.9003,VALID,0,VALID,19.6638,VALID,142,VALID,0.890625,
2011-06-08, 00:49:05,VALID,917.809,VALID,0,VALID,91.885,VALID,0,VALID,19.6443,VALID,134,VALID,1.05547,
2011-06-08, 00:50:05,VALID,917.829,VALID,0,VALID,91.9079,VALID,0,VALID,19.6053,VALID,145,VALID,0.74375,
2011-06-08, 00:51:05,VALID,917.818,VALID,0,VALID,91.8698,VALID,0,VALID,19.5648,VALID,145,VALID,0.646094,
2011-06-08, 00:52:05,VALID,917.8,VALID,0,VALID,91.9765,VALID,0,VALID,19.5063,VALID,145,VALID,0.810547,
2011-06-08, 00:53:05,VALID,917.793,VALID,0,VALID,92.1366,VALID,0,VALID,19.4688,VALID,145,VALID,0.520703,
2011-06-08, 00:54:05,VALID,917.805,VALID,0,VALID,92.3577,VALID,0,VALID,19.3908,VALID,144,VALID,0.623047,
2011-06-08, 00:55:05,VALID,917.765,VALID,0,VALID,92.6397,VALID,0,VALID,19.3713,VALID,144,VALID,0.491797,
2011-06-08, 00:56:05,VALID,917.765,VALID,0,VALID,92.7007,VALID,0,VALID,19.3308,VALID,144,VALID,0.334766,
2011-06-08, 00:57:05,VALID,917.732,VALID,0,VALID,92.6321,VALID,0,VALID,19.3518,VALID,144,VALID,0.821484,
2011-06-08, 00:58:05,VALID,917.747,VALID,0,VALID,92.4644,VALID,0,VALID,19.3713,VALID,144,VALID,0.898438,
2011-06-08, 00:59:05,VALID,917.723,VALID,0,VALID,92.1823,VALID,0,VALID,19.3698,VALID,144,VALID,0.655859,
2011-06-08, 01:00:05,VALID,917.693,VALID,0,VALID,91.9079,VALID,0,VALID,19.4298,VALID,144,VALID,0.480078,
2011-06-08, 01:01:05,VALID,917.737,VALID,0,VALID,91.5267,VALID,0,VALID,19.4283,VALID,144,VALID,0.347656,
2011-06-08, 01:02:05,VALID,917.756,VALID,0,VALID,91.4734,VALID,0,VALID,19.4283,VALID,144,VALID,0.486719,
2011-06-08, 01:03:05,VALID,917.768,VALID,0,VALID,91.4657,VALID,0,VALID,19.4283,VALID,144,VALID,0.713672,
2011-06-08, 01:04:05,VALID,917.764,VALID,0,VALID,91.1608,VALID,0.107441,VALID,19.4478,VALID,144,VALID,0.665625,
2011-06-08, 01:05:05,VALID,917.789,VALID,0,VALID,90.8101,VALID,0.107441,VALID,19.5063,VALID,144,VALID,0.504687,
2011-06-08, 01:06:05,VALID,917.789,VALID,0,VALID,90.368,VALID,0,VALID,19.5453,VALID,144,VALID,0.860156,
2011-06-08, 01:07:05,VALID,917.766,VALID,0,VALID,90.2231,VALID,0,VALID,19.6038,VALID,144,VALID,0.707031,
2011-06-08, 01:08:05,VALID,917.754,VALID,0,VALID,90.0173,VALID,0,VALID,19.6023,VALID,144,VALID,0.771484,
2011-06-08, 01:09:05,VALID,917.77,VALID,0,VALID,89.9258,VALID,0.107441,VALID,19.6818,VALID,144,VALID,0.494531,
2011-06-08, 01:10:05,VALID,917.746,VALID,0,VALID,89.9868,VALID,0.107441,VALID,19.7013,VALID,144,VALID,0.540625,
2011-06-08, 01:11:05,VALID,917.707,VALID,0,VALID,89.9106,VALID,0.107441,VALID,19.7013,VALID,144,VALID,0.438672,
2011-06-08, 01:12:05,VALID,917.707,VALID,0,VALID,89.7886,VALID,0,VALID,19.7208,VALID,144,VALID,0.549219,
2011-06-08, 01:13:05,VALID,917.683,VALID,0,VALID,89.7276,VALID,0.107441,VALID,19.7193,VALID,144,VALID,0.658594,
2011-06-08, 01:14:05,VALID,917.654,VALID,0,VALID,89.659,VALID,0,VALID,19.7388,VALID,144,VALID,1.05156,
2011-06-08, 01:15:05,VALID,917.612,VALID,0,VALID,89.6819,VALID,0,VALID,19.7793,VALID,144,VALID,0.614062,
2011-06-08, 01:16:05,VALID,917.629,VALID,0,VALID,89.6361,VALID,0,VALID,19.7808,VALID,144,VALID,0.293359,
2011-06-08, 01:17:05,VALID,917.62,VALID,0,VALID,89.6666,VALID,0,VALID,19.7808,VALID,144,VALID,0.308984,
2011-06-08, 01:18:05,VALID,917.598,VALID,0,VALID,89.7276,VALID,0,VALID,19.7808,VALID,144,VALID,0,
2011-06-08, 01:19:05,VALID,917.602,VALID,0,VALID,89.6742,VALID,0,VALID,19.7808,VALID,144,VALID,0,
2011-06-08, 01:20:05,VALID,917.606,VALID,0,VALID,89.5751,VALID,0,VALID,19.7613,VALID,144,VALID,0,
2011-06-08, 01:21:05,VALID,917.607,VALID,0,VALID,89.7581,VALID,0,VALID,19.7223,VALID,144,VALID,0.638672,
2011-06-08, 01:22:05,VALID,917.562,VALID,0,VALID,89.9716,VALID,0,VALID,19.6638,VALID,144,VALID,0.385938,
2011-06-08, 01:23:05,VALID,917.575,VALID,0,VALID,90.0173,VALID,0,VALID,19.6248,VALID,144,VALID,0.362109,
2011-06-08, 01:24:05,VALID,917.594,VALID,0,VALID,90.3604,VALID,0,VALID,19.5468,VALID,144,VALID,0.455859,
2011-06-08, 01:25:05,VALID,917.551,VALID,0,VALID,90.5967,VALID,0,VALID,19.5273,VALID,144,VALID,0.541406,
2011-06-08, 01:26:05,VALID,917.559,VALID,0,VALID,90.8864,VALID,0,VALID,19.4493,VALID,144,VALID,0.382813,
2011-06-08, 01:27:05,VALID,917.557,VALID,0,VALID,91.0312,VALID,0,VALID,19.3698,VALID,144,VALID,0.7,
2011-06-08, 01:28:05,VALID,917.584,VALID,0,VALID,91.5496,VALID,0,VALID,19.2933,VALID,144,VALID,0.782422,
2011-06-08, 01:29:05,VALID,917.564,VALID,0,VALID,92.2128,VALID,0,VALID,19.2139,VALID,144,VALID,1.01523,
2011-06-08, 01:30:05,VALID,917.594,VALID,0,VALID,92.3424,VALID,0,VALID,19.2348,VALID,144,VALID,0.7625,
2011-06-08, 01:31:05,VALID,917.588,VALID,0,VALID,92.5864,VALID,0,VALID,19.2348,VALID,144,VALID,0.933984,
2011-06-08, 01:32:05,VALID,917.62,VALID,0,VALID,92.6321,VALID,0,VALID,19.2153,VALID,144,VALID,0.850391,
2011-06-08, 01:33:05,VALID,917.597,VALID,0,VALID,92.7922,VALID,0,VALID,19.1958,VALID,144,VALID,0.966406,
2011-06-08, 01:34:05,VALID,917.604,VALID,0,VALID,92.9828,VALID,0,VALID,19.1359,VALID,144,VALID,0.860156,
2011-06-08, 01:35:05,VALID,917.565,VALID,0,VALID,93.2572,VALID,0,VALID,19.1568,VALID,144,VALID,1.00547,
2011-06-08, 01:36:05,VALID,917.561,VALID,0,VALID,93.2877,VALID,0,VALID,19.1568,VALID,144,VALID,0.928125,
2011-06-08, 01:37:05,VALID,917.55,VALID,0,VALID,93.2115,VALID,0,VALID,19.1568,VALID,144,VALID,0.482031,
2011-06-08, 01:38:05,VALID,917.51,VALID,0,VALID,93.0819,VALID,0,VALID,19.1554,VALID,144,VALID,0.504687,
2011-06-08, 01:39:05,VALID,917.489,VALID,0,VALID,92.9904,VALID,0,VALID,19.1958,VALID,143,VALID,0.353125,
2011-06-08, 01:40:05,VALID,917.508,VALID,0,VALID,92.9828,VALID,0,VALID,19.1568,VALID,143,VALID,0.435937,
2011-06-08, 01:41:05,VALID,917.462,VALID,0,VALID,93.0514,VALID,0,VALID,19.1763,VALID,143,VALID,0.608203,
2011-06-08, 01:42:05,VALID,917.451,VALID,0,VALID,93.0895,VALID,0,VALID,19.1568,VALID,144,VALID,0.708984,
2011-06-08, 01:43:05,VALID,917.447,VALID,0,VALID,93.0819,VALID,0,VALID,19.1763,VALID,144,VALID,0.708594,
2011-06-08, 01:44:05,VALID,917.44,VALID,0,VALID,92.9599,VALID,0,VALID,19.1763,VALID,144,VALID,0.533203,
2011-06-08, 01:45:05,VALID,917.435,VALID,0,VALID,92.7998,VALID,0,VALID,19.2139,VALID,144,VALID,0.764453,
2011-06-08, 01:46:05,VALID,917.44,VALID,0,VALID,92.6397,VALID,0,VALID,19.2334,VALID,144,VALID,0.420703,
2011-06-08, 01:47:05,VALID,917.446,VALID,0,VALID,92.5178,VALID,0,VALID,19.2933,VALID,144,VALID,0.261719,
2011-06-08, 01:48:05,VALID,917.484,VALID,0,VALID,92.1442,VALID,0,VALID,19.3518,VALID,144,VALID,0.561328,
2011-06-08, 01:49:05,VALID,917.455,VALID,0,VALID,91.9155,VALID,0,VALID,19.3713,VALID,144,VALID,0.532422,
2011-06-08, 01:50:05,VALID,917.454,VALID,0,VALID,91.6945,VALID,0,VALID,19.3698,VALID,144,VALID,0.782812,
2011-06-08, 01:51:05,VALID,917.401,VALID,0,VALID,91.5648,VALID,0,VALID,19.3893,VALID,144,VALID,0.667188,
2011-06-08, 01:52:05,VALID,917.392,VALID,0,VALID,91.5115,VALID,0,VALID,19.4298,VALID,144,VALID,0.692969,
2011-06-08, 01:53:05,VALID,917.378,VALID,0,VALID,91.3895,VALID,0,VALID,19.4688,VALID,144,VALID,0.835156,
2011-06-08, 01:54:05,VALID,917.359,VALID,0,VALID,91.3819,VALID,0,VALID,19.4478,VALID,143,VALID,0.780078,
2011-06-08, 01:55:05,VALID,917.352,VALID,0,VALID,91.5115,VALID,0,VALID,19.4883,VALID,143,VALID,0.863281,
2011-06-08, 01:56:05,VALID,917.349,VALID,0,VALID,91.4886,VALID,0,VALID,19.4688,VALID,143,VALID,0.869922,
2011-06-08, 01:57:05,VALID,917.349,VALID,0,VALID,91.4657,VALID,0,VALID,19.5078,VALID,143,VALID,0.6375,
2011-06-08, 01:58:05,VALID,917.345,VALID,0,VALID,91.4886,VALID,0,VALID,19.4883,VALID,143,VALID,0.748828,
2011-06-08, 01:59:05,VALID,917.338,VALID,0,VALID,91.5801,VALID,0,VALID,19.5273,VALID,143,VALID,1.09258,
2011-06-08, 02:00:05,VALID,917.331,VALID,0,VALID,91.6411,VALID,0,VALID,19.5258,VALID,133,VALID,1.09922,
2011-06-08, 02:01:05,VALID,917.302,VALID,0,VALID,91.7249,VALID,0,VALID,19.5468,VALID,133,VALID,0.873828,
2011-06-08, 02:02:05,VALID,917.275,VALID,0,VALID,91.7478,VALID,0,VALID,19.5468,VALID,133,VALID,0.933203,
2011-06-08, 02:03:05,VALID,917.264,VALID,0,VALID,91.7859,VALID,0,VALID,19.5468,VALID,133,VALID,0.642578,
2011-06-08, 02:04:05,VALID,917.259,VALID,0,VALID,91.7173,VALID,0,VALID,19.5663,VALID,133,VALID,0.653125,
2011-06-08, 02:05:05,VALID,917.259,VALID,0,VALID,91.603,VALID,0,VALID,19.5453,VALID,133,VALID,0.915234,
2011-06-08, 02:06:05,VALID,917.24,VALID,0,VALID,91.5496,VALID,0,VALID,19.5468,VALID,133,VALID,0.752734,
2011-06-08, 02:07:05,VALID,917.263,VALID,0,VALID,91.7859,VALID,0,VALID,19.5063,VALID,133,VALID,0.846875,
2011-06-08, 02:08:05,VALID,917.201,VALID,0,VALID,92.1214,VALID,0,VALID,19.4478,VALID,133,VALID,1.32461,
2011-06-08, 02:09:05,VALID,917.212,VALID,0,VALID,92.1747,VALID,0,VALID,19.4298,VALID,132,VALID,1.55938,
2011-06-08, 02:10:05,VALID,917.214,VALID,0,VALID,92.1442,VALID,0,VALID,19.4103,VALID,132,VALID,1.28633,
2011-06-08, 02:11:05,VALID,917.214,VALID,0,VALID,92.2205,VALID,0,VALID,19.4103,VALID,132,VALID,1.29688,
2011-06-08, 02:12:05,VALID,917.231,VALID,0,VALID,92.3577,VALID,0,VALID,19.3518,VALID,132,VALID,0.982031,
2011-06-08, 02:13:05,VALID,917.225,VALID,0,VALID,92.5178,VALID,0,VALID,19.3323,VALID,131,VALID,0.872266,
2011-06-08, 02:14:05,VALID,917.236,VALID,0,VALID,92.6321,VALID,0,VALID,19.2933,VALID,132,VALID,0.884766,
2011-06-08, 02:15:05,VALID,917.22,VALID,0,VALID,92.8075,VALID,0,VALID,19.2738,VALID,132,VALID,0.937891,
2011-06-08, 02:16:05,VALID,917.211,VALID,0,VALID,92.9066,VALID,0,VALID,19.2933,VALID,132,VALID,0.601563,
2011-06-08, 02:17:05,VALID,917.242,VALID,0,VALID,93.0285,VALID,0,VALID,19.2543,VALID,132,VALID,0.652734,
2011-06-08, 02:18:05,VALID,917.217,VALID,0,VALID,93.1429,VALID,0,VALID,19.2543,VALID,132,VALID,0.296484,
2011-06-08, 02:19:05,VALID,917.193,VALID,0,VALID,93.3259,VALID,0,VALID,19.2334,VALID,132,VALID,0.475391,
2011-06-08, 02:20:05,VALID,917.16,VALID,0,VALID,93.425,VALID,0,VALID,19.2738,VALID,132,VALID,0.736328,
2011-06-08, 02:21:05,VALID,917.162,VALID,0,VALID,93.5774,VALID,0,VALID,19.2933,VALID,132,VALID,0.789453,
2011-06-08, 02:22:05,VALID,917.141,VALID,0,VALID,93.7909,VALID,0,VALID,19.2723,VALID,132,VALID,0.950781,
2011-06-08, 02:23:05,VALID,917.129,VALID,0,VALID,93.8443,VALID,0.107441,VALID,19.2723,VALID,132,VALID,0.863672,
2011-06-08, 02:24:05,VALID,917.09,VALID,0,VALID,93.9205,VALID,0,VALID,19.2738,VALID,132,VALID,0.828516,
2011-06-08, 02:25:05,VALID,917.092,VALID,0,VALID,93.9281,VALID,0,VALID,19.2543,VALID,132,VALID,0.893359,
2011-06-08, 02:26:05,VALID,917.095,VALID,0,VALID,94.0272,VALID,0,VALID,19.2543,VALID,132,VALID,1.30078,
2011-06-08, 02:27:05,VALID,917.085,VALID,0,VALID,94.1644,VALID,0,VALID,19.2543,VALID,132,VALID,1.28984,
2011-06-08, 02:28:05,VALID,917.053,VALID,0,VALID,94.3169,VALID,0,VALID,19.2348,VALID,132,VALID,1.13672,
2011-06-08, 02:29:05,VALID,917.025,VALID,0,VALID,94.3703,VALID,0,VALID,19.2348,VALID,131,VALID,0.884375,
2011-06-08, 02:30:05,VALID,917.058,VALID,0,VALID,94.3779,VALID,0,VALID,19.2543,VALID,132,VALID,1.03477,
2011-06-08, 02:31:05,VALID,917.029,VALID,0,VALID,94.5304,VALID,0,VALID,19.2738,VALID,132,VALID,0.871484,
2011-06-08, 02:32:05,VALID,917.013,VALID,0,VALID,94.66,VALID,0,VALID,19.2738,VALID,132,VALID,0.912109,
2011-06-08, 02:33:05,VALID,917.043,VALID,0,VALID,94.7514,VALID,0,VALID,19.3323,VALID,132,VALID,0.705859,
2011-06-08, 02:34:05,VALID,917.019,VALID,0,VALID,94.7057,VALID,0,VALID,19.3518,VALID,132,VALID,0.600391,
2011-06-08, 02:35:05,VALID,917.026,VALID,0,VALID,94.66,VALID,0,VALID,19.3503,VALID,132,VALID,0.694531,
2011-06-08, 02:36:05,VALID,917.011,VALID,0,VALID,94.5837,VALID,0,VALID,19.4103,VALID,132,VALID,0.75625,
2011-06-08, 02:37:05,VALID,916.954,VALID,0,VALID,94.4084,VALID,0,VALID,19.4688,VALID,132,VALID,0.646484,
2011-06-08, 02:38:05,VALID,916.975,VALID,0,VALID,94.2178,VALID,0,VALID,19.4688,VALID,132,VALID,0.515625,
2011-06-08, 02:39:05,VALID,916.953,VALID,0,VALID,93.9738,VALID,0,VALID,19.5078,VALID,132,VALID,0.742188,
2011-06-08, 02:40:05,VALID,916.976,VALID,0,VALID,93.6613,VALID,0,VALID,19.4688,VALID,132,VALID,0.584375,
2011-06-08, 02:41:05,VALID,916.971,VALID,0,VALID,93.5164,VALID,0,VALID,19.5063,VALID,132,VALID,0.552344,
2011-06-08, 02:42:05,VALID,917.006,VALID,0,VALID,93.303,VALID,0,VALID,19.5273,VALID,132,VALID,0.698047,
2011-06-08, 02:43:05,VALID,916.993,VALID,0,VALID,92.9523,VALID,0,VALID,19.5258,VALID,132,VALID,0.974609,
2011-06-08, 02:44:05,VALID,916.993,VALID,0,VALID,92.7007,VALID,0,VALID,19.5858,VALID,132,VALID,0.496875,
2011-06-08, 02:45:04,VALID,916.999,VALID,0,VALID,92.2891,VALID,0,VALID,19.6248,VALID,132,VALID,1.15586,
2011-06-08, 02:46:04,VALID,917.012,VALID,0,VALID,91.9689,VALID,0,VALID,19.6248,VALID,132,VALID,0.680469,
2011-06-08, 02:47:04,VALID,917.011,VALID,0,VALID,91.8164,VALID,0,VALID,19.6038,VALID,132,VALID,0.873047,
2011-06-08, 02:48:04,VALID,917.023,VALID,0,VALID,91.7478,VALID,0,VALID,19.6053,VALID,132,VALID,0.822266,
2011-06-08, 02:49:04,VALID,917.013,VALID,0,VALID,91.7478,VALID,0,VALID,19.5858,VALID,132,VALID,0.599219,
2011-06-08, 02:50:04,VALID,916.992,VALID,0,VALID,91.8012,VALID,0,VALID,19.5468,VALID,132,VALID,0.575,
2011-06-08, 02:51:04,VALID,917.006,VALID,0,VALID,91.9765,VALID,0,VALID,19.5453,VALID,132,VALID,0.452344,
2011-06-08, 02:52:04,VALID,916.98,VALID,0,VALID,92.0375,VALID,0,VALID,19.5273,VALID,132,VALID,0.495703,
2011-06-08, 02:53:04,VALID,916.976,VALID,0,VALID,91.9231,VALID,0,VALID,19.5468,VALID,132,VALID,0.717578,
2011-06-08, 02:54:04,VALID,916.98,VALID,0,VALID,91.9079,VALID,0,VALID,19.5273,VALID,132,VALID,0.742969,
2011-06-08, 02:55:04,VALID,916.966,VALID,0,VALID,91.6106,VALID,0,VALID,19.4868,VALID,132,VALID,0.862109,
2011-06-08, 02:56:04,VALID,916.972,VALID,0,VALID,91.4505,VALID,0,VALID,19.4673,VALID,132,VALID,0.715234,
2011-06-08, 02:57:04,VALID,916.937,VALID,0,VALID,91.1379,VALID,0,VALID,19.4493,VALID,132,VALID,0.760938,
2011-06-08, 02:58:04,VALID,916.944,VALID,0,VALID,90.3299,VALID,0,VALID,19.4493,VALID,132,VALID,1.05078,
2011-06-08, 02:59:04,VALID,916.935,VALID,0,VALID,89.6819,VALID,0,VALID,19.4688,VALID,132,VALID,0.811328,
2011-06-08, 03:00:04,VALID,916.926,VALID,0,VALID,89.1406,VALID,0,VALID,19.4493,VALID,132,VALID,0.983203,
2011-06-08, 03:01:04,VALID,916.925,VALID,0,VALID,88.9805,VALID,0,VALID,19.4298,VALID,131,VALID,0.810938,
2011-06-08, 03:02:04,VALID,916.871,VALID,0,VALID,88.6451,VALID,0,VALID,19.4103,VALID,131,VALID,0.733594,
2011-06-08, 03:03:04,VALID,916.885,VALID,0,VALID,88.3935,VALID,0,VALID,19.3503,VALID,131,VALID,0.618359,
2011-06-08, 03:04:04,VALID,916.844,VALID,0,VALID,87.7531,VALID,0,VALID,19.3323,VALID,131,VALID,0.377734,
2011-06-08, 03:05:04,VALID,916.859,VALID,0,VALID,88.1648,VALID,0,VALID,19.3518,VALID,131,VALID,0.158984,
2011-06-08, 03:06:04,VALID,916.863,VALID,0,VALID,87.9132,VALID,0,VALID,19.3323,VALID,131,VALID,0.555078,
2011-06-08, 03:07:04,VALID,916.833,VALID,0,VALID,87.1128,VALID,0,VALID,19.2933,VALID,131,VALID,0.992969,
2011-06-08, 03:08:04,VALID,916.827,VALID,0,VALID,86.602,VALID,0,VALID,19.2723,VALID,131,VALID,0.953125,
2011-06-08, 03:09:04,VALID,916.864,VALID,0,VALID,86.3885,VALID,0,VALID,19.2738,VALID,131,VALID,1.14141,
2011-06-08, 03:10:04,VALID,916.854,VALID,0,VALID,86.3809,VALID,0,VALID,19.2528,VALID,131,VALID,1.15508,
2011-06-08, 03:11:04,VALID,916.834,VALID,0,VALID,86.4877,VALID,0,VALID,19.2738,VALID,131,VALID,1.18164,
2011-06-08, 03:12:04,VALID,916.865,VALID,0,VALID,86.419,VALID,0,VALID,19.2528,VALID,131,VALID,1.14766,
2011-06-08, 03:13:04,VALID,916.861,VALID,0,VALID,86.3123,VALID,0,VALID,19.2543,VALID,131,VALID,1.11328,
2011-06-08, 03:14:04,VALID,916.881,VALID,0,VALID,86.48,VALID,0,VALID,19.2334,VALID,128,VALID,1.01914,
2011-06-08, 03:15:04,VALID,916.866,VALID,0,VALID,86.5639,VALID,0,VALID,19.2153,VALID,128,VALID,1.16953,
2011-06-08, 03:16:04,VALID,916.856,VALID,0,VALID,86.4495,VALID,0,VALID,19.1749,VALID,128,VALID,1.1125,
2011-06-08, 03:17:04,VALID,916.867,VALID,0,VALID,86.4877,VALID,0,VALID,19.1958,VALID,128,VALID,0.986719,
2011-06-08, 03:18:04,VALID,916.87,VALID,0,VALID,86.5868,VALID,0,VALID,19.1958,VALID,128,VALID,0.941016,
2011-06-08, 03:19:04,VALID,916.865,VALID,0,VALID,86.5868,VALID,0,VALID,19.1763,VALID,128,VALID,1.12305,
2011-06-08, 03:20:04,VALID,916.888,VALID,0,VALID,86.8764,VALID,0,VALID,19.1958,VALID,128,VALID,0.626953,
2011-06-08, 03:21:04,VALID,916.859,VALID,0,VALID,87.2347,VALID,0,VALID,19.1763,VALID,128,VALID,0.492188,
2011-06-08, 03:22:04,VALID,916.872,VALID,0,VALID,87.0823,VALID,0,VALID,19.1373,VALID,128,VALID,0.6375,
2011-06-08, 03:23:04,VALID,916.876,VALID,0,VALID,86.9069,VALID,0,VALID,19.1178,VALID,128,VALID,0.731641,
2011-06-08, 03:24:04,VALID,916.872,VALID,0,VALID,86.8688,VALID,0,VALID,19.1373,VALID,128,VALID,0.932031,
2011-06-08, 03:25:04,VALID,916.852,VALID,0,VALID,86.8307,VALID,0,VALID,19.1568,VALID,128,VALID,0.903906,
2011-06-08, 03:26:04,VALID,916.853,VALID,0,VALID,87.0213,VALID,0,VALID,19.1568,VALID,128,VALID,0.616016,
2011-06-08, 03:27:04,VALID,916.832,VALID,0,VALID,87.3872,VALID,0,VALID,19.1568,VALID,128,VALID,0.885156,
2011-06-08, 03:28:04,VALID,916.819,VALID,0,VALID,87.9818,VALID,0,VALID,19.1178,VALID,128,VALID,0.783984,
2011-06-08, 03:29:04,VALID,916.807,VALID,0,VALID,88.5612,VALID,0,VALID,19.0969,VALID,128,VALID,0.644922,
2011-06-08, 03:30:04,VALID,916.787,VALID,0,VALID,88.95,VALID,0,VALID,19.0774,VALID,128,VALID,0.940234,
2011-06-08, 03:31:04,VALID,916.801,VALID,0,VALID,89.2321,VALID,0,VALID,19.0983,VALID,128,VALID,0.872266,
2011-06-08, 03:32:04,VALID,916.789,VALID,0,VALID,89.3693,VALID,0,VALID,19.0788,VALID,128,VALID,0.896094,
2011-06-08, 03:33:04,VALID,916.779,VALID,0,VALID,89.5599,VALID,0,VALID,19.0983,VALID,128,VALID,0.7625,
2011-06-08, 03:34:04,VALID,916.785,VALID,0,VALID,89.7124,VALID,0,VALID,19.0983,VALID,128,VALID,0.788281,
2011-06-08, 03:35:04,VALID,916.773,VALID,0,VALID,89.8953,VALID,0,VALID,19.0998,VALID,128,VALID,0.584375,
2011-06-08, 03:36:04,VALID,916.776,VALID,0,VALID,90.0783,VALID,0,VALID,19.0593,VALID,128,VALID,0.684766,
2011-06-08, 03:37:04,VALID,916.822,VALID,0,VALID,90.4518,VALID,0,VALID,19.0593,VALID,128,VALID,0.825391,
2011-06-08, 03:38:04,VALID,916.798,VALID,0,VALID,90.6119,VALID,0,VALID,19.0593,VALID,128,VALID,0.538672,
2011-06-08, 03:39:04,VALID,916.802,VALID,0,VALID,90.8254,VALID,0,VALID,19.0788,VALID,127,VALID,0.903516,
2011-06-08, 03:40:04,VALID,916.844,VALID,0,VALID,90.8559,VALID,0,VALID,19.0788,VALID,127,VALID,0.675,
2011-06-08, 03:41:04,VALID,916.859,VALID,0,VALID,91.016,VALID,0,VALID,19.0788,VALID,127,VALID,0.541406,
2011-06-08, 03:42:04,VALID,916.842,VALID,0,VALID,91.4734,VALID,0,VALID,19.0398,VALID,127,VALID,0.78125,
2011-06-08, 03:43:04,VALID,916.832,VALID,0,VALID,91.7935,VALID,0,VALID,19.0398,VALID,127,VALID,0.773047,
2011-06-08, 03:44:04,VALID,916.859,VALID,0,VALID,91.9841,VALID,0,VALID,19.0398,VALID,127,VALID,0.837109,